Location: Mentone
(34.5413°N, 85.5351°W)
Time: 09:28:58
(UTC-05:00)

Transit 2A Rocket - Visible Passes

Search period start: 02 October 2014 00:00
Search period end: 12 October 2014 00:00
Orbit: 592 x 916 km, 66.7° (Epoch: 01 October)

Date Brightness Start Highest point End Pass type
(mag) Time Alt. Az. Time Alt. Az. Time Alt. Az.
06 Oct 7.7 06:01:39 10° NNE 06:04:28 14° NE 06:07:22 10° E visible
09 Oct 7.6 05:38:09 10° N 05:42:11 21° NE 05:46:25 10° ESE visible
10 Oct 7.9 04:57:48 10° NNE 05:00:09 13° NE 05:02:34 10° ENE visible
11 Oct 6.1 05:56:22 10° NNW 06:01:38 52° ENE 06:07:19 10° SE visible
